Weather History for McCall, ID

Change the Weather History Date:

Saturday, December 3, 2011

  Actual Average Record
Temperature  
Mean Temperature 16 °F 21 °F  
Max Temperature 26 °F 29 °F 51 °F (1941)
Min Temperature 6 °F 13 °F -5 °F (2009)
Degree Days  
Heating Degree Days 49 44  
Month to date heating degree days 130 131  
Since 1 July heating degree days 2286 2769  
Cooling Degree Days 0 0  
Month to date cooling degree days 0 0  
Year to date cooling degree days 56 25  
Moisture  
Dew Point 12 °F    
Average Humidity 73    
Maximum Humidity 88    
Minimum Humidity 57    
Precipitation  
Precipitation T in 0.06 in 0.85 in (1998)
Month to date precipitation T 0.18  
Year to date precipitation 22.80 18.22  
Sea Level Pressure  
Sea Level Pressure 30.37 in    
Wind  
Wind Speed 2 mph (North)    
Max Wind Speed 10 mph    
Max Gust Speed 15 mph    
Visibility 10 miles    
Events Snow    
T = Trace of Precipitation, MM = Missing Value Source: NWS Daily Summary

Daily Weather History Graph

Daily Weather History Graph

Search for Another Location

Airport:

Trip Planner

Search our weather history database for the weather conditions in past years. The results will help you decide how hot, cold, wet, or windy it might be!

Date:

Astronomy

Dec. 03, 2011 Rise Set
Actual Time 8:04 AM MST 5:04 PM MST
Civil Twilight 7:30 AM MST 5:37 PM MST
Nautical Twilight 6:54 AM MST 6:13 PM MST
Astronomical Twilight 6:18 AM MST 6:49 PM MST
Moon 1:23 PM MST (12/3) 1:22 AM MST (12/3)
Length of Visible Light 10h 06m
Length of Day
8h 59m
Waxing Gibbous, 63% of the Moon is Illuminated
Dec 3
Waxing Gibbous
Dec 10
Full
Dec 17
Last Quarter
Dec 24
New
Dec 31
First Quarter

Hourly Weather History & Observations

Time (MST) Temp. Windchill Dew Point Humidity Pressure Visibility Wind Dir Wind Speed Gust Speed Precip Events Conditions
12:51 AM 21.9 °F 12.5 °F 8.1 °F 55% 30.33 in 10.0 mi NNW 8.1 mph - N/A   Clear
1:51 AM 19.9 °F 14.9 °F 9.0 °F 62% 30.34 in 10.0 mi North 3.5 mph - N/A   Clear
2:51 AM 19.0 °F 12.3 °F 8.1 °F 62% 30.36 in 10.0 mi NNE 4.6 mph - N/A   Clear
3:51 AM 19.0 °F 7.5 °F 8.1 °F 62% 30.35 in 10.0 mi North 10.4 mph - N/A   Clear
4:51 AM 18.0 °F 8.7 °F 7.0 °F 62% 30.36 in 10.0 mi North 6.9 mph - N/A   Clear
5:51 AM 9.0 °F - 3.9 °F 80% 30.40 in 10.0 mi Calm Calm - N/A   Clear
6:51 AM 8.1 °F - 3.9 °F 83% 30.40 in 10.0 mi Calm Calm - N/A   Clear
7:51 AM 7.0 °F - 3.0 °F 84% 30.42 in 10.0 mi Calm Calm - N/A   Clear
8:51 AM 10.0 °F - 5.0 °F 80% 30.42 in 10.0 mi Calm Calm - N/A   Clear
9:51 AM 12.9 °F - 7.0 °F 77% 30.42 in 10.0 mi Calm Calm - N/A   Partly Cloudy
10:51 AM 17.1 °F - 9.0 °F 71% 30.41 in 10.0 mi Calm Calm - N/A   Overcast
11:51 AM 19.0 °F 12.3 °F 9.0 °F 65% 30.39 in 10.0 mi South 4.6 mph - N/A   Overcast
12:51 PM 21.9 °F - 10.9 °F 63% 30.37 in 10.0 mi Calm Calm - N/A   Overcast
1:51 PM 24.1 °F - 12.9 °F 62% 30.36 in 10.0 mi Calm Calm - N/A   Overcast
2:51 PM 24.1 °F 19.7 °F 14.0 °F 65% 30.34 in 10.0 mi South 3.5 mph - N/A   Overcast
3:51 PM 25.0 °F - 14.0 °F 63% 30.33 in 10.0 mi Calm Calm - N/A   Overcast
4:51 PM 26.1 °F - 15.1 °F 63% 30.33 in 10.0 mi Calm Calm - N/A   Overcast
5:51 PM 26.1 °F - 17.1 °F 69% 30.37 in 10.0 mi Calm Calm - N/A   Overcast
7:51 PM 25.0 °F - 19.9 °F 81% 30.38 in 10.0 mi Calm Calm - 0.00 in   Overcast
8:51 PM 24.1 °F - 21.0 °F 88% 30.38 in 10.0 mi Calm Calm - 0.00 in   Overcast
9:51 PM 23.0 °F - 21.0 °F 92% 30.37 in 6.0 mi Calm Calm - 0.00 in Snow Light Snow
10:51 PM 23.0 °F - 19.9 °F 88% 30.36 in 10.0 mi Calm Calm - 0.00 in   Overcast
11:51 PM 21.9 °F - 19.0 °F 89% 30.35 in 10.0 mi Calm Calm - 0.00 in   Mostly Cloudy